Time,TemperatureF,DewpointF,PressureIn,WindDirection,WindDirectionDegrees,WindSpeedMPH,WindSpeedGustMPH,Humidity,HourlyPrecipIn,Conditions,Clouds,dailyrainin,SolarRadiationWatts/m^2,SoftwareType,DateUTC
2013-01-07 00:02:00,4.0,-1.0,-100.00,SSE,150,1.0,5.0,80,0.00,,,0.01,0.000000,,2013-01-07 07:02:00,
2013-01-07 00:53:00,6.0,0.0,-100.00,SE,128,0.0,8.0,76,0.00,,,0.01,0.000000,,2013-01-07 07:53:00,
2013-01-07 01:02:00,6.0,0.0,-100.00,SE,128,0.0,8.0,76,0.00,,,0.01,0.000000,,2013-01-07 08:02:00,
2013-01-07 01:22:00,6.0,0.0,-100.00,SE,128,0.0,8.0,76,0.00,,,0.01,0.000000,,2013-01-07 08:22:00,
2013-01-07 01:32:00,6.0,0.0,-100.00,SE,128,0.0,8.0,76,0.00,,,0.01,0.000000,,2013-01-07 08:32:00,
2013-01-07 01:53:00,1.0,-4.0,-100.00,ESE,116,0.0,3.0,77,0.00,,,0.01,0.000000,,2013-01-07 08:53:00,
2013-01-07 02:02:00,1.0,-4.0,-100.00,ESE,116,0.0,3.0,77,0.00,,,0.01,0.000000,,2013-01-07 09:02:00,
2013-01-07 02:32:00,1.0,-4.0,-100.00,ESE,116,0.0,3.0,77,0.00,,,0.01,0.000000,,2013-01-07 09:32:00,
2013-01-07 02:52:00,0.0,-5.0,-100.00,SSW,211,0.0,4.0,78,0.00,,,0.01,0.000000,,2013-01-07 09:52:00,
2013-01-07 03:02:00,0.0,-5.0,-100.00,SSW,211,0.0,4.0,78,0.00,,,0.01,0.000000,,2013-01-07 10:02:00,
2013-01-07 03:12:00,0.0,-5.0,-100.00,SSW,211,0.0,4.0,78,0.00,,,0.01,0.000000,,2013-01-07 10:12:00,
2013-01-07 03:22:00,0.0,-5.0,-100.00,SSW,211,0.0,4.0,78,0.00,,,0.01,0.000000,,2013-01-07 10:22:00,
2013-01-07 03:32:00,0.0,-5.0,-100.00,SSW,211,0.0,4.0,78,0.00,,,0.01,0.000000,,2013-01-07 10:32:00,
2013-01-07 03:52:00,0.0,-5.0,-100.00,East,81,1.0,4.0,77,0.00,,,0.01,0.000000,,2013-01-07 10:52:00,
2013-01-07 04:02:00,0.0,-5.0,-100.00,East,81,1.0,4.0,77,0.00,,,0.01,0.000000,,2013-01-07 11:02:00,
2013-01-07 04:12:00,0.0,-5.0,-100.00,East,81,1.0,4.0,77,0.00,,,0.01,0.000000,,2013-01-07 11:12:00,
2013-01-07 04:22:00,0.0,-5.0,-100.00,East,81,1.0,4.0,77,0.00,,,0.01,0.000000,,2013-01-07 11:22:00,
2013-01-07 04:32:00,0.0,-5.0,-100.00,East,81,1.0,4.0,77,0.00,,,0.01,0.000000,,2013-01-07 11:32:00,
2013-01-07 04:53:00,0.0,-6.0,-100.00,SSW,192,0.0,3.0,76,0.00,,,0.01,0.000000,,2013-01-07 11:53:00,
2013-01-07 05:02:00,0.0,-6.0,-100.00,SSW,192,0.0,3.0,76,0.00,,,0.01,0.000000,,2013-01-07 12:02:00,
2013-01-07 05:12:00,0.0,-6.0,-100.00,SSW,192,0.0,3.0,76,0.00,,,0.01,0.000000,,2013-01-07 12:12:00,
2013-01-07 05:22:00,0.0,-6.0,-100.00,SSW,192,0.0,3.0,76,0.00,,,0.01,0.000000,,2013-01-07 12:22:00,
2013-01-07 05:32:00,0.0,-6.0,-100.00,SSW,192,0.0,3.0,76,0.00,,,0.01,0.000000,,2013-01-07 12:32:00,
2013-01-07 06:02:00,0.0,-6.0,-100.00,NE,43,0.0,2.0,76,0.00,,,0.01,0.000000,,2013-01-07 13:02:00,
2013-01-07 06:12:00,0.0,-6.0,-100.00,NE,43,0.0,2.0,76,0.00,,,0.01,0.000000,,2013-01-07 13:12:00,
2013-01-07 06:22:00,0.0,-6.0,-100.00,NE,43,0.0,2.0,76,0.00,,,0.01,0.000000,,2013-01-07 13:22:00,
2013-01-07 06:32:00,0.0,-6.0,-100.00,NE,43,0.0,2.0,76,0.00,,,0.01,0.000000,,2013-01-07 13:32:00,
2013-01-07 06:53:00,1.0,-4.0,-100.00,ESE,106,0.0,3.0,77,0.00,,,0.01,0.000000,,2013-01-07 13:53:00,
2013-01-07 07:03:00,1.0,-4.0,-100.00,ESE,106,0.0,3.0,77,0.00,,,0.01,0.000000,,2013-01-07 14:03:00,
2013-01-07 07:12:00,1.0,-4.0,-100.00,ESE,106,0.0,3.0,77,0.00,,,0.01,0.000000,,2013-01-07 14:12:00,
2013-01-07 07:22:00,1.0,-4.0,-100.00,ESE,106,0.0,3.0,77,0.00,,,0.01,0.000000,,2013-01-07 14:22:00,
2013-01-07 07:32:00,1.0,-4.0,-100.00,ESE,106,0.0,3.0,77,0.00,,,0.01,0.000000,,2013-01-07 14:32:00,
2013-01-07 07:53:00,1.0,-4.0,-100.00,SE,133,0.0,3.0,77,0.00,,,0.01,0.000000,,2013-01-07 14:53:00,
2013-01-07 08:03:00,1.0,-4.0,-100.00,SE,133,0.0,3.0,77,0.00,,,0.01,0.000000,,2013-01-07 15:03:00,
2013-01-07 08:12:00,1.0,-4.0,-100.00,SE,133,0.0,3.0,77,0.00,,,0.01,0.000000,,2013-01-07 15:12:00,
2013-01-07 08:22:00,1.0,-4.0,-100.00,SE,133,0.0,3.0,77,0.00,,,0.01,0.000000,,2013-01-07 15:22:00,
2013-01-07 08:33:00,1.0,-4.0,-100.00,SE,133,0.0,3.0,77,0.00,,,0.01,0.000000,,2013-01-07 15:33:00,
2013-01-07 08:53:00,3.0,-2.0,-100.00,South,186,0.0,3.0,79,0.00,,,0.01,0.000000,,2013-01-07 15:53:00,
2013-01-07 09:02:00,3.0,-2.0,-100.00,South,186,0.0,3.0,79,0.00,,,0.01,0.000000,,2013-01-07 16:02:00,
2013-01-07 09:12:00,3.0,-2.0,-100.00,South,186,0.0,3.0,79,0.00,,,0.01,0.000000,,2013-01-07 16:12:00,
2013-01-07 09:22:00,3.0,-2.0,-100.00,South,186,0.0,3.0,79,0.00,,,0.01,0.000000,,2013-01-07 16:22:00,
2013-01-07 09:33:00,3.0,-2.0,-100.00,South,186,0.0,3.0,79,0.00,,,0.01,0.000000,,2013-01-07 16:33:00,
2013-01-07 10:02:00,7.0,2.0,-100.00,ENE,61,1.0,2.0,80,0.00,,,0.01,9.000000,,2013-01-07 17:02:00,
2013-01-07 10:12:00,7.0,2.0,-100.00,ENE,61,1.0,2.0,80,0.00,,,0.01,9.000000,,2013-01-07 17:12:00,
2013-01-07 10:22:00,7.0,2.0,-100.00,ENE,61,1.0,2.0,80,0.00,,,0.01,9.000000,,2013-01-07 17:22:00,
2013-01-07 10:32:00,7.0,2.0,-100.00,ENE,61,1.0,2.0,80,0.00,,,0.01,9.000000,,2013-01-07 17:32:00,
2013-01-07 10:53:00,14.0,8.0,-100.00,ESE,105,1.0,4.0,78,0.00,,,0.01,30.000000,,2013-01-07 17:53:00,
2013-01-07 11:02:00,14.0,8.0,-100.00,ESE,105,1.0,4.0,78,0.00,,,0.01,30.000000,,2013-01-07 18:02:00,
2013-01-07 11:12:00,14.0,8.0,-100.00,ESE,105,1.0,4.0,78,0.00,,,0.01,30.000000,,2013-01-07 18:12:00,
2013-01-07 11:23:00,14.0,8.0,-100.00,ESE,105,1.0,4.0,78,0.00,,,0.01,30.000000,,2013-01-07 18:23:00,
2013-01-07 11:32:00,14.0,8.0,-100.00,ESE,105,1.0,4.0,78,0.00,,,0.01,30.000000,,2013-01-07 18:32:00,
2013-01-07 12:03:00,17.0,11.0,-100.00,NE,42,1.0,4.0,78,0.00,,,0.01,71.000000,,2013-01-07 19:03:00,
2013-01-07 12:12:00,17.0,11.0,-100.00,NE,42,1.0,4.0,78,0.00,,,0.01,71.000000,,2013-01-07 19:12:00,
2013-01-07 12:22:00,17.0,11.0,-100.00,NE,42,1.0,4.0,78,0.00,,,0.01,71.000000,,2013-01-07 19:22:00,
2013-01-07 12:33:00,17.0,11.0,-100.00,NE,42,1.0,4.0,78,0.00,,,0.01,71.000000,,2013-01-07 19:33:00,
2013-01-07 12:53:00,18.0,13.0,-100.00,SW,221,3.0,6.0,79,0.01,,,0.02,50.000000,,2013-01-07 19:53:00,
2013-01-07 13:03:00,18.0,13.0,-100.00,SW,221,3.0,6.0,79,0.01,,,0.02,50.000000,,2013-01-07 20:03:00,
2013-01-07 13:12:00,18.0,13.0,-100.00,SW,221,3.0,6.0,79,0.01,,,0.02,50.000000,,2013-01-07 20:12:00,
2013-01-07 13:22:00,18.0,13.0,-100.00,SW,221,3.0,6.0,79,0.01,,,0.02,50.000000,,2013-01-07 20:22:00,
2013-01-07 13:32:00,18.0,13.0,-100.00,SW,221,3.0,6.0,79,0.01,,,0.02,50.000000,,2013-01-07 20:32:00,
2013-01-07 14:02:00,18.0,13.0,-100.00,SW,236,4.0,7.0,79,0.01,,,0.03,32.000000,,2013-01-07 21:02:00,
2013-01-07 14:12:00,18.0,13.0,-100.00,SW,236,4.0,7.0,79,0.01,,,0.03,32.000000,,2013-01-07 21:12:00,
2013-01-07 14:22:00,18.0,13.0,-100.00,SW,236,4.0,7.0,79,0.01,,,0.03,32.000000,,2013-01-07 21:22:00,
2013-01-07 14:32:00,18.0,13.0,-100.00,SW,236,4.0,7.0,79,0.01,,,0.03,32.000000,,2013-01-07 21:32:00,
2013-01-07 14:53:00,17.0,11.0,-100.00,SW,227,4.0,12.0,78,0.02,,,0.04,26.000000,,2013-01-07 21:53:00,
2013-01-07 15:02:00,17.0,11.0,-100.00,SW,227,4.0,12.0,78,0.02,,,0.04,26.000000,,2013-01-07 22:02:00,
2013-01-07 15:12:00,17.0,11.0,-100.00,SW,227,4.0,12.0,78,0.02,,,0.04,26.000000,,2013-01-07 22:12:00,
2013-01-07 15:22:00,17.0,11.0,-100.00,SW,227,4.0,12.0,78,0.02,,,0.04,26.000000,,2013-01-07 22:22:00,
2013-01-07 15:33:00,17.0,11.0,-100.00,SW,227,4.0,12.0,78,0.02,,,0.04,26.000000,,2013-01-07 22:33:00,
2013-01-07 16:02:00,16.0,11.0,-100.00,SSW,196,2.0,11.0,80,0.01,,,0.05,11.000000,,2013-01-07 23:02:00,
2013-01-07 16:12:00,16.0,11.0,-100.00,SSW,196,2.0,11.0,80,0.01,,,0.05,11.000000,,2013-01-07 23:12:00,
2013-01-07 16:22:00,16.0,11.0,-100.00,SSW,196,2.0,11.0,80,0.01,,,0.05,11.000000,,2013-01-07 23:22:00,
2013-01-07 16:32:00,16.0,11.0,-100.00,SSW,196,2.0,11.0,80,0.01,,,0.05,11.000000,,2013-01-07 23:32:00,
2013-01-07 16:53:00,16.0,11.0,-100.00,WSW,254,3.0,8.0,81,0.01,,,0.06,5.000000,,2013-01-07 23:53:00,
2013-01-07 17:02:00,16.0,11.0,-100.00,WSW,254,3.0,8.0,81,0.01,,,0.06,5.000000,,2013-01-08 00:02:00,
2013-01-07 17:12:00,16.0,11.0,-100.00,WSW,254,3.0,8.0,81,0.01,,,0.06,5.000000,,2013-01-08 00:12:00,
2013-01-07 17:22:00,16.0,11.0,-100.00,WSW,254,3.0,8.0,81,0.01,,,0.06,5.000000,,2013-01-08 00:22:00,
2013-01-07 17:32:00,16.0,11.0,-100.00,WSW,254,3.0,8.0,81,0.01,,,0.06,5.000000,,2013-01-08 00:32:00,
2013-01-07 18:02:00,16.0,12.0,-100.00,WSW,239,5.0,20.0,83,0.00,,,0.06,0.000000,,2013-01-08 01:02:00,
2013-01-07 18:12:00,16.0,12.0,-100.00,WSW,239,5.0,20.0,83,0.00,,,0.06,0.000000,,2013-01-08 01:12:00,
2013-01-07 18:22:00,16.0,12.0,-100.00,WSW,239,5.0,20.0,83,0.00,,,0.06,0.000000,,2013-01-08 01:22:00,
2013-01-07 18:32:00,16.0,12.0,-100.00,WSW,239,5.0,20.0,83,0.00,,,0.06,0.000000,,2013-01-08 01:32:00,
2013-01-07 18:52:00,15.0,11.0,-100.00,WSW,242,4.0,13.0,83,0.00,,,0.06,0.000000,,2013-01-08 01:52:00,
2013-01-07 19:02:00,15.0,11.0,-100.00,WSW,242,4.0,13.0,83,0.00,,,0.06,0.000000,,2013-01-08 02:02:00,
2013-01-07 19:12:00,15.0,11.0,-100.00,WSW,242,4.0,13.0,83,0.00,,,0.06,0.000000,,2013-01-08 02:12:00,
2013-01-07 19:22:00,15.0,11.0,-100.00,WSW,242,4.0,13.0,83,0.00,,,0.06,0.000000,,2013-01-08 02:22:00,
2013-01-07 19:32:00,15.0,11.0,-100.00,WSW,242,4.0,13.0,83,0.00,,,0.06,0.000000,,2013-01-08 02:32:00,
2013-01-07 19:53:00,16.0,12.0,-100.00,SW,233,6.0,14.0,84,0.01,,,0.07,0.000000,,2013-01-08 02:53:00,
2013-01-07 20:03:00,16.0,12.0,-100.00,SW,233,6.0,14.0,84,0.01,,,0.07,0.000000,,2013-01-08 03:03:00,
2013-01-07 20:12:00,16.0,12.0,-100.00,SW,233,6.0,14.0,84,0.01,,,0.07,0.000000,,2013-01-08 03:12:00,
2013-01-07 20:22:00,16.0,12.0,-100.00,SW,233,6.0,14.0,84,0.01,,,0.07,0.000000,,2013-01-08 03:22:00,
2013-01-07 20:32:00,16.0,12.0,-100.00,SW,233,6.0,14.0,84,0.01,,,0.07,0.000000,,2013-01-08 03:32:00,
2013-01-07 21:02:00,16.0,12.0,-100.00,SSW,204,7.0,14.0,83,0.00,,,0.07,0.000000,,2013-01-08 04:02:00,
2013-01-07 21:12:00,16.0,12.0,-100.00,SSW,204,7.0,14.0,83,0.00,,,0.07,0.000000,,2013-01-08 04:12:00,
2013-01-07 21:22:00,16.0,12.0,-100.00,SSW,204,7.0,14.0,83,0.00,,,0.07,0.000000,,2013-01-08 04:22:00,
2013-01-07 21:32:00,16.0,12.0,-100.00,SSW,204,7.0,14.0,83,0.00,,,0.07,0.000000,,2013-01-08 04:32:00,
2013-01-07 22:03:00,16.0,12.0,-100.00,SSW,196,7.0,18.0,84,0.00,,,0.07,0.000000,,2013-01-08 05:03:00,
2013-01-07 22:12:00,16.0,12.0,-100.00,SSW,196,7.0,18.0,84,0.00,,,0.07,0.000000,,2013-01-08 05:12:00,
2013-01-07 22:22:00,16.0,12.0,-100.00,SSW,196,7.0,18.0,84,0.00,,,0.07,0.000000,,2013-01-08 05:22:00,
2013-01-07 22:32:00,16.0,12.0,-100.00,SSW,196,7.0,18.0,84,0.00,,,0.07,0.000000,,2013-01-08 05:32:00,
2013-01-07 23:02:00,16.0,12.0,-100.00,NW,304,2.0,12.0,85,0.00,,,0.07,0.000000,,2013-01-08 06:02:00,
2013-01-07 23:12:00,16.0,12.0,-100.00,NW,304,2.0,12.0,85,0.00,,,0.07,0.000000,,2013-01-08 06:12:00,
2013-01-07 23:22:00,16.0,12.0,-100.00,NW,304,2.0,12.0,85,0.00,,,0.07,0.000000,,2013-01-08 06:22:00,
2013-01-07 23:32:00,16.0,12.0,-100.00,NW,304,2.0,12.0,85,0.00,,,0.07,0.000000,,2013-01-08 06:32:00,